| time (UTC) | temp F | wind direction | speed MPH | gust MPH | rain 1hr in | rain 24hr in | rain mn in | humidity % | barometer mb |
| 20260510033008 | 74 | 173 | 3.0 | 5.0 | 0.00 | 0.02 | 0.02 | 68 | 1010.2 |
| 20260510031521 | 74 | 178 | 3.0 | 7.0 | 0.00 | 0.02 | 0.02 | 66 | 1010.1 |
| 20260510030015 | 74 | 164 | 2.0 | 6.0 | 0.00 | 0.02 | 0.02 | 66 | 1010.1 |
| 20260510024521 | 75 | 175 | 2.0 | 5.0 | 0.00 | 0.02 | 0.02 | 67 | 1009.9 |
| 20260510023026 | 75 | 166 | 2.0 | 4.0 | 0.00 | 0.02 | 0.02 | 66 | 1009.6 |
| 20260510021514 | 76 | 163 | 1.0 | 3.0 | 0.00 | 0.02 | 0.02 | 64 | 1009.6 |
| 20260510020019 | 78 | 155 | 1.0 | 3.0 | 0.00 | 0.02 | 0.02 | 61 | 1009.6 |
| 20260510014519 | 79 | 165 | 2.0 | 4.0 | 0.00 | 0.02 | 0.02 | 59 | 1009.4 |
| 20260510013023 | 80 | 167 | 1.0 | 4.0 | 0.00 | 0.02 | 0.02 | 56 | 1009.2 |
| 20260510011508 | 81 | 130 | 2.0 | 4.0 | 0.00 | 0.02 | 0.02 | 55 | 1008.9 |
| 20260510010014 | 83 | 174 | 2.0 | 5.0 | 0.00 | 0.02 | 0.02 | 54 | 1009.0 |
| 20260510004520 | 84 | 173 | 2.0 | 5.0 | 0.00 | 0.02 | 0.02 | 52 | 1009.0 |
| 20260510003029 | 85 | 178 | 3.0 | 8.0 | 0.00 | 0.02 | 0.02 | 48 | 1009.0 |
| 20260510001527 | 86 | 169 | 3.0 | 9.0 | 0.00 | 0.02 | 0.02 | 49 | 1009.0 |
| 20260510000018 | 86 | 173 | 4.0 | 9.0 | 0.00 | 0.02 | 0.02 | 48 | 1009.0 |
| 20260509234520 | 87 | 194 | 5.0 | 8.0 | 0.00 | 0.02 | 0.02 | 47 | 1009.0 |
| 20260509233022 | 87 | 140 | 5.0 | 10.0 | 0.00 | 0.02 | 0.02 | 46 | 1009.0 |
| 20260509231527 | 87 | 140 | 5.0 | 10.0 | 0.00 | 0.02 | 0.02 | 47 | 1008.9 |
| 20260509230012 | 87 | 128 | 6.0 | 10.0 | 0.00 | 0.02 | 0.02 | 46 | 1009.0 |
| 20260509224517 | 88 | 156 | 5.0 | 10.0 | 0.00 | 0.02 | 0.02 | 46 | 1009.0 |
| 20260509223021 | 88 | 167 | 4.0 | 12.0 | 0.00 | 0.02 | 0.02 | 46 | 1009.0 |
| 20260509221526 | 88 | 178 | 4.0 | 13.0 | 0.00 | 0.02 | 0.02 | 47 | 1009.1 |
| 20260509220038 | 87 | 170 | 6.0 | 10.0 | 0.00 | 0.02 | 0.02 | 47 | 1009.1 |
| 20260509214513 | 87 | 203 | 8.0 | 11.0 | 0.00 | 0.02 | 0.02 | 50 | 1009.2 |
| 20260509213022 | 88 | 181 | 7.0 | 12.0 | 0.00 | 0.02 | 0.02 | 47 | 1009.3 |
| 20260509211524 | 88 | 204 | 4.0 | 12.0 | 0.00 | 0.02 | 0.02 | 46 | 1009.5 |
| 20260509210026 | 88 | 187 | 3.0 | 9.0 | 0.00 | 0.02 | 0.02 | 51 | 1009.6 |
| 20260509204515 | 87 | 173 | 7.0 | 12.0 | 0.00 | 0.02 | 0.02 | 46 | 1010.1 |
| 20260509203029 | 87 | 124 | 2.0 | 6.0 | 0.00 | 0.02 | 0.02 | 44 | 1010.2 |
| 20260509201522 | 87 | 221 | 6.0 | 9.0 | 0.00 | 0.02 | 0.02 | 44 | 1010.3 |
| 20260509200036 | 87 | 188 | 3.0 | 10.0 | 0.00 | 0.02 | 0.02 | 46 | 1010.4 |
| 20260509194543 | 86 | 71 | 1.0 | 8.0 | 0.00 | 0.02 | 0.02 | 50 | 1010.8 |
| 20260509193022 | 86 | 134 | 5.0 | 11.0 | 0.00 | 0.02 | 0.02 | 51 | 1010.8 |
| 20260509191522 | 86 | 173 | 2.0 | 7.0 | 0.00 | 0.02 | 0.02 | 52 | 1010.9 |
| 20260509190026 | 85 | 168 | 2.0 | 7.0 | 0.00 | 0.02 | 0.02 | 51 | 1011.1 |
| 20260509184525 | 84 | 215 | 2.0 | 5.0 | 0.00 | 0.02 | 0.02 | 55 | 1011.2 |
| 20260509183029 | 84 | 84 | 1.0 | 7.0 | 0.00 | 0.02 | 0.02 | 53 | 1011.4 |
| 20260509181519 | 83 | 236 | 3.0 | 6.0 | 0.00 | 0.19 | 0.02 | 59 | 1011.6 |
| 20260509180023 | 83 | 227 | 2.0 | 7.0 | 0.00 | 0.19 | 0.02 | 60 | 1012.0 |
| 20260509174540 | 82 | 307 | 4.0 | 8.0 | 0.00 | 0.19 | 0.02 | 62 | 1012.1 |
| 20260509173026 | 81 | 302 | 2.0 | 8.0 | 0.00 | 0.19 | 0.02 | 65 | 1012.3 |
| 20260509171526 | 80 | 280 | 2.0 | 6.0 | 0.00 | 0.19 | 0.02 | 68 | 1012.4 |
| 20260509170005 | 80 | 319 | 2.0 | 4.0 | 0.00 | 0.19 | 0.02 | 68 | 1012.5 |
| 20260509164508 | 78 | 9 | 2.0 | 9.0 | 0.00 | 0.19 | 0.02 | 72 | 1012.7 |
| 20260509163016 | 77 | 30 | 2.0 | 4.0 | 0.00 | 0.19 | 0.02 | 71 | 1012.9 |
| 20260509161527 | 77 | 322 | 4.0 | 9.0 | 0.00 | 0.19 | 0.02 | 71 | 1012.7 |
| 20260509160022 | 76 | 209 | 3.0 | 8.0 | 0.00 | 0.19 | 0.02 | 73 | 1012.7 |
| 20260509154507 | 75 | 277 | 3.0 | 8.0 | 0.00 | 0.19 | 0.02 | 73 | 1012.8 |
| 20260509153021 | 74 | 246 | 3.0 | 8.0 | 0.00 | 0.19 | 0.02 | 76 | 1012.7 |
| 20260509151518 | 74 | 304 | 3.0 | 10.0 | 0.00 | 0.19 | 0.02 | 75 | 1012.7 |
| 20260509150033 | 73 | 287 | 2.0 | 5.0 | 0.00 | 0.19 | 0.02 | 76 | 1012.8 |
| 20260509144506 | 73 | 341 | 4.0 | 8.0 | 0.00 | 0.19 | 0.02 | 76 | 1012.9 |
| 20260509143008 | 72 | 11 | 4.0 | 9.0 | 0.00 | 0.19 | 0.02 | 77 | 1012.9 |
| 20260509141514 | 71 | 348 | 3.0 | 9.0 | 0.00 | 0.19 | 0.02 | 78 | 1012.9 |
| 20260509140022 | 70 | 19 | 6.0 | 10.0 | 0.00 | 0.19 | 0.02 | 81 | 1012.9 |
| 20260509134527 | 68 | 15 | 4.0 | 7.0 | 0.00 | 0.19 | 0.02 | 82 | 1012.9 |
| 20260509133008 | 66 | 351 | 4.0 | 7.0 | 0.00 | 0.19 | 0.02 | 83 | 1012.7 |
| 20260509131518 | 65 | 23 | 4.0 | 7.0 | 0.00 | 0.19 | 0.02 | 83 | 1012.5 |
| 20260509130022 | 64 | 352 | 3.0 | 6.0 | 0.00 | 0.19 | 0.02 | 85 | 1012.4 |
| 20260509124524 | 63 | 15 | 2.0 | 5.0 | 0.00 | 0.19 | 0.02 | 87 | 1012.0 |
| 20260509123028 | 62 | 29 | 1.0 | 2.0 | 0.00 | 0.19 | 0.02 | 89 | 1011.5 |
| 20260509121514 | 61 | 23 | 1.0 | 4.0 | 0.00 | 0.19 | 0.02 | 89 | 1011.5 |
| 20260509120024 | 61 | 29 | 1.0 | 3.0 | 0.00 | 0.19 | 0.02 | 89 | 1011.4 |
| 20260509114525 | 61 | 47 | 1.0 | 3.0 | 0.00 | 0.19 | 0.02 | 90 | 1011.1 |
| 20260509113026 | 61 | 286 | 0.0 | 3.0 | 0.00 | 0.19 | 0.02 | 88 | 1010.9 |
| 20260509111510 | 62 | 286 | 1.0 | 8.0 | 0.00 | 0.19 | 0.02 | 88 | 1010.7 |
| 20260509110005 | 63 | 275 | 4.0 | 6.0 | 0.00 | 0.19 | 0.02 | 86 | 1010.5 |
| 20260509104508 | 64 | 15 | 3.0 | 4.0 | 0.00 | 0.19 | 0.02 | 86 | 1010.0 |
| 20260509103004 | 65 | 96 | 0.0 | 4.0 | 0.00 | 0.19 | 0.02 | 85 | 1009.9 |
| 20260509101504 | 65 | 88 | 2.0 | 4.0 | 0.00 | 0.19 | 0.02 | 84 | 1009.7 |
| 20260509100008 | 65 | 195 | 3.0 | 7.0 | 0.00 | 0.19 | 0.02 | 83 | 1009.7 |
| 20260509094509 | 64 | 190 | 10.0 | 19.0 | 0.00 | 0.19 | 0.02 | 85 | 1009.9 |
| 20260509093010 | 64 | 238 | 10.0 | 16.0 | 0.00 | 0.19 | 0.02 | 85 | 1010.4 |
| 20260509091510 | 64 | 204 | 4.0 | 11.0 | 0.00 | 0.19 | 0.02 | 86 | 1010.8 |
| 20260509090010 | 63 | 209 | 2.0 | 8.0 | 0.00 | 0.19 | 0.02 | 87 | 1010.9 |
| 20260509084510 | 63 | 144 | 4.0 | 13.0 | 0.00 | 0.19 | 0.02 | 88 | 1010.2 |
| 20260509083015 | 63 | 207 | 6.0 | 12.0 | 0.00 | 0.19 | 0.02 | 87 | 1011.2 |
| 20260509081509 | 63 | 184 | 10.0 | 15.0 | 0.01 | 0.19 | 0.02 | 86 | 1011.0 |
| 20260509080014 | 64 | 182 | 4.0 | 7.0 | 0.02 | 0.19 | 0.02 | 85 | 1011.4 |
| 20260509074508 | 65 | 166 | 3.0 | 4.0 | 0.02 | 0.19 | 0.02 | 82 | 1012.2 |
| 20260509073012 | 66 | 9 | 4.0 | 13.0 | 0.02 | 0.19 | 0.02 | 81 | 1013.1 |
| 20260509071513 | 67 | 52 | 7.0 | 18.0 | 0.01 | 0.18 | 0.01 | 82 | 1013.4 |
| 20260509070014 | 67 | 16 | 6.0 | 17.0 | 0.00 | 0.17 | 0.00 | 88 | 1013.7 |
| 20260509064511 | 68 | 80 | 14.0 | 24.0 | 0.00 | 0.17 | 0.00 | 90 | 1013.7 |
| 20260509063017 | 67 | 37 | 6.0 | 11.0 | 0.00 | 0.17 | 0.00 | 93 | 1012.8 |
| 20260509061513 | 65 | 32 | 6.0 | 10.0 | 0.00 | 0.17 | 0.00 | 92 | 1012.1 |
| 20260509060014 | 65 | 105 | 1.0 | 3.0 | 0.00 | 0.17 | 0.00 | 92 | 1011.0 |
| 20260509054514 | 66 | 132 | 2.0 | 4.0 | 0.00 | 0.17 | 0.00 | 92 | 1011.2 |
| 20260509053014 | 66 | 184 | 2.0 | 6.0 | 0.00 | 0.17 | 0.00 | 91 | 1011.2 |
| 20260509051514 | 66 | 202 | 4.0 | 9.0 | 0.00 | 0.17 | 0.00 | 91 | 1011.0 |
| 20260509050037 | 66 | 165 | 4.0 | 9.0 | 0.00 | 0.17 | 0.00 | 91 | 1010.7 |
| 20260509044512 | 67 | 185 | 5.0 | 9.0 | 0.00 | 0.17 | 0.17 | 90 | 1010.6 |
| 20260509043015 | 67 | 175 | 5.0 | 10.0 | 0.00 | 0.17 | 0.17 | 90 | 1010.8 |
| 20260509041517 | 67 | 164 | 4.0 | 9.0 | 0.00 | 0.17 | 0.17 | 89 | 1010.7 |
| 20260509040016 | 68 | 165 | 4.0 | 8.0 | 0.00 | 0.17 | 0.17 | 88 | 1011.1 |
| 20260509034518 | 68 | 145 | 3.0 | 6.0 | 0.00 | 0.17 | 0.17 | 87 | 1011.0 |